ONEWEB-0636, 56077

Orbit data source: Space-Track

ONEWEB-0636, 56077 is a payload satellite owned by One Web (NAA) (UK) in LEO that was launched on Sun, 26 Mar 2023 UTC via a LVM3 launch vehicle from the Sirharikota (SRI). Payload-class satellites include a variety of spacecraft equipped with specific instruments for various scientific and technological missions. These include communications satellites like Starlink; space stations such as the ISS; scientific satellites like the Hubble; Earth observation satellites from companies like Planet Labs, Umbra, and HawkEye 360; GPS; miniature CubeSats for education and research; and military/defense satellites.

Loading next visibility...
Identifier
56077, 2023-043AH
Orbit
LEO
Country
Flag of UKUK
Related business
Manufacturer
One Web
Mission
Operational Commercial Communications
Bus & Motor
ARROW, Unknown motor
Mass
148 kg wet, ~140 kg dry
Launch date (UTC)
2023-03-26 (3 years ago)
Launch vehicle
LVM3
Launch site
Sirharikota (SRI)
Object type
Payload
Rocket body
Debris
Shape & HBR
Trap Box + 2 Pan, 6.7 m
Radar Cross Section
3.464 m², Large (>1 m²)

Expand to show TLE details & history
Last TLE update: 2 days ago

TLE from 2 days ago
0 ONEWEB-0636
1 56077U 23043AH  26171.17851313  .00000017  00000-0  11361-4 0  9997
2 56077  87.9010 258.6022 0001952  94.3854 265.7499 13.15549952156803
Epoch: 2026-06-20T04:17Z
TLE epoch observation values (Epoch: 2026-06-20T04:17:03.534Z)
Latitude
-0.00006°
Longitude
-74.05939°
Altitude
1,204.771 km
Speed
7.252 km/s
True Right ascension
17h 14m 24s
True Declination
0° 00' 00"
Sunlit
Object was in full shadow at epoch
Visualization orbit readout
Latitude
Unknown
Longitude
Unknown
Altitude
Unknown
Speed
Unknown
Apparent Right ascension
Unknown
Apparent Declination
Unknown
Sunlit
N/A
Visualization observer readout
Local Sidereal Time
21:55:33
Azimuth
Unknown
Elevation
Unknown
Doppler factor
Unknown
Orbital elements
Apogee altitude
1,200.356 km
Perigee altitude
1,197.398 km
Semi-major axis
7,577.014 km
Eccentricity
0.0002
Inclination
87.901°
RAAN
258.6022°
Arg. of periapsis
94.3854°
True anomaly
265.72759°
Mean anomaly
265.7499°
Eccentric anomaly
265.73875°
Mean motion
3.29076 °/min
Orbital period
109.4 mins
BSTAR
0.000011361
Loading maneuver chart data...
Computing Atmospheric mass density...
Loading historical data...
Loading historical data...
Loading historical data...
Loading historical data...
Loading historical data...
Loading historical data...
Loading historical data...

Documentation

Showing up to 5 results
|